RYR86DZ EBCI-LFMU

Flight info

Callsign RYR86DZ
Flight time 1h 21m
Altitude 35000
Route CIV Y50 IDOKO/N0329F170 Y50 MATIX/N0337F190 Y50 REM B3 VATRI G40 TRO B373 MOU A27 MINPA/N0329F180 A27 MOKDI/N0333F190 A27 MEN J27 AFRIC
Aircraft B738/M-SDE3FGILRWY/SB1

Departure

Time 2026-04-24 07:41
Airport Brussels South Charleroi Airport (EBCI)

Arrival

Time 2026-04-24 09:02
Airport Béziers Vias airport (LFMU)
Time Latitude Longitude Altitude Speed Heading
2026-04-24 07:22 50.46806 4.46874 620 ft 0 kts 335°
2026-04-24 07:31 50.46798 4.46880 625 ft 4 kts 335°
2026-04-24 07:31 50.46778 4.46894 627 ft 3 kts 335°
2026-04-24 07:32 50.46761 4.46914 625 ft 4 kts 275°
2026-04-24 07:32 50.46766 4.46949 627 ft 4 kts 245°
2026-04-24 07:32 50.46771 4.46966 625 ft 1 kts 245°
2026-04-24 07:36 50.46765 4.46943 627 ft 5 kts 246°
2026-04-24 07:36 50.46750 4.46890 620 ft 6 kts 245°
2026-04-24 07:36 50.46718 4.46791 617 ft 12 kts 230°
2026-04-24 07:37 50.46642 4.46799 614 ft 13 kts 156°
2026-04-24 07:37 50.46584 4.46722 620 ft 16 kts 246°
2026-04-24 07:37 50.46536 4.46550 621 ft 19 kts 246°
2026-04-24 07:37 50.46477 4.46348 618 ft 22 kts 245°
2026-04-24 07:38 50.46410 4.46119 617 ft 24 kts 245°
2026-04-24 07:38 50.46342 4.45888 620 ft 23 kts 245°
2026-04-24 07:38 50.46276 4.45664 623 ft 22 kts 245°
2026-04-24 07:38 50.46214 4.45447 620 ft 22 kts 246°
2026-04-24 07:39 50.46153 4.45235 614 ft 21 kts 246°
2026-04-24 07:39 50.46093 4.45031 619 ft 20 kts 244°
2026-04-24 07:39 50.46035 4.44833 620 ft 19 kts 244°
2026-04-24 07:39 50.45937 4.44781 622 ft 16 kts 158°
2026-04-24 07:40 50.45878 4.44899 624 ft 16 kts 71°
2026-04-24 07:40 50.45940 4.45126 616 ft 45 kts 66°
2026-04-24 07:40 50.46171 4.45922 615 ft 113 kts 65°
2026-04-24 07:40 50.46569 4.47303 728 ft 156 kts 66°
2026-04-24 07:41 50.47027 4.48830 1478 ft 155 kts 58°
2026-04-24 07:41 50.47864 4.49880 2131 ft 168 kts 16°
2026-04-24 07:41 50.49098 4.50373 2455 ft 196 kts 21°
2026-04-24 07:41 50.50532 4.50642 2689 ft 225 kts 349°
2026-04-24 07:42 50.51863 4.49257 3194 ft 243 kts 309°
2026-04-24 07:42 50.52388 4.46708 3827 ft 254 kts 270°
2026-04-24 07:42 50.52041 4.43992 4542 ft 258 kts 243°
2026-04-24 07:42 50.50862 4.41902 5249 ft 257 kts 218°
2026-04-24 07:43 50.49444 4.40143 5875 ft 266 kts 217°
2026-04-24 07:43 50.47928 4.38304 6393 ft 281 kts 217°
2026-04-24 07:43 50.46367 4.36410 7183 ft 285 kts 217°
2026-04-24 07:43 50.44810 4.34511 7966 ft 290 kts 217°
2026-04-24 07:44 50.43210 4.32548 8755 ft 294 kts 218°
2026-04-24 07:44 50.41593 4.30555 9559 ft 298 kts 218°
2026-04-24 07:44 50.39953 4.28530 10348 ft 302 kts 218°
2026-04-24 07:44 50.38269 4.26447 10796 ft 319 kts 218°
2026-04-24 07:45 50.36463 4.24212 11014 ft 341 kts 218°
2026-04-24 07:45 50.34574 4.21875 11591 ft 350 kts 218°
2026-04-24 07:45 50.32658 4.19506 12367 ft 352 kts 218°
2026-04-24 07:45 50.30727 4.17119 13174 ft 355 kts 218°
2026-04-24 07:46 50.28769 4.14701 13886 ft 362 kts 218°
2026-04-24 07:46 50.26782 4.12250 14584 ft 367 kts 218°
2026-04-24 07:46 50.24766 4.09765 15304 ft 370 kts 218°
2026-04-24 07:46 50.22736 4.07267 16126 ft 371 kts 218°
2026-04-24 07:47 50.20706 4.04769 16962 ft 372 kts 218°
2026-04-24 07:47 50.20019 4.03925 17237 ft 373 kts 218°
2026-04-24 07:47 50.18932 4.02589 17634 ft 374 kts 218°
2026-04-24 07:47 50.16877 4.00065 18390 ft 377 kts 218°
2026-04-24 07:48 50.14809 3.97529 19094 ft 379 kts 217°
2026-04-24 07:48 50.12730 3.94988 19781 ft 380 kts 217°
2026-04-24 07:48 50.10468 3.92862 20392 ft 382 kts 201°
2026-04-24 07:48 50.07891 3.91880 21062 ft 383 kts 185°
2026-04-24 07:49 50.05229 3.91982 21705 ft 384 kts 174°
2026-04-24 07:49 50.02570 3.92461 22358 ft 386 kts 173°
2026-04-24 07:49 49.99897 3.92978 22999 ft 388 kts 173°
2026-04-24 07:49 49.97211 3.93486 23630 ft 390 kts 173°
2026-04-24 07:50 49.94509 3.93975 24182 ft 392 kts 174°
2026-04-24 07:50 49.91794 3.94448 24670 ft 394 kts 174°
2026-04-24 07:50 49.89056 3.94913 25143 ft 397 kts 174°
2026-04-24 07:50 49.86303 3.95376 25619 ft 399 kts 174°
2026-04-24 07:51 49.83535 3.95840 26082 ft 401 kts 174°
2026-04-24 07:51 49.80750 3.96306 26539 ft 404 kts 174°
2026-04-24 07:51 49.77949 3.96776 26991 ft 406 kts 174°
2026-04-24 07:51 49.75134 3.97251 27431 ft 408 kts 174°
2026-04-24 07:52 49.72300 3.97729 27861 ft 411 kts 174°
2026-04-24 07:52 49.71340 3.97890 28006 ft 411 kts 174°
2026-04-24 07:52 49.69850 3.98142 28231 ft 413 kts 174°
2026-04-24 07:52 49.66990 3.98623 28639 ft 415 kts 174°
2026-04-24 07:53 49.64115 3.99106 29059 ft 417 kts 174°
2026-04-24 07:53 49.61232 3.99590 29623 ft 415 kts 174°
2026-04-24 07:53 49.58376 4.00069 30289 ft 411 kts 174°
2026-04-24 07:53 49.55542 4.00543 30823 ft 408 kts 174°
2026-04-24 07:54 49.52722 4.01012 31252 ft 408 kts 174°
2026-04-24 07:54 49.49898 4.01480 31658 ft 408 kts 174°
2026-04-24 07:54 49.47083 4.01947 32111 ft 406 kts 174°
2026-04-24 07:54 49.44277 4.02412 32589 ft 404 kts 174°
2026-04-24 07:55 49.41533 4.02866 33010 ft 403 kts 174°
2026-04-24 07:55 49.38733 4.03329 33413 ft 403 kts 174°
2026-04-24 07:55 49.35949 4.03780 33839 ft 402 kts 174°
2026-04-24 07:55 49.33173 4.04207 34276 ft 400 kts 174°
2026-04-24 07:56 49.30404 4.04583 34623 ft 400 kts 177°
2026-04-24 07:56 49.27625 4.04717 34921 ft 400 kts 179°
2026-04-24 07:56 49.24844 4.04738 35228 ft 400 kts 180°
2026-04-24 07:56 49.22039 4.04745 35247 ft 406 kts 179°
2026-04-24 07:57 49.19211 4.04778 35263 ft 407 kts 179°
2026-04-24 07:57 49.13983 4.04891 35254 ft 401 kts 179°
2026-04-24 07:58 49.08443 4.05035 35269 ft 398 kts 179°
2026-04-24 07:58 49.02893 4.05184 35274 ft 399 kts 179°
2026-04-24 07:59 48.97331 4.05331 35268 ft 400 kts 178°
2026-04-24 07:59 48.91756 4.05476 35269 ft 401 kts 178°
2026-04-24 08:00 48.86171 4.05620 35267 ft 402 kts 178°
2026-04-24 08:00 48.80580 4.05767 35267 ft 402 kts 178°
2026-04-24 08:01 48.74986 4.05885 35265 ft 402 kts 179°
2026-04-24 08:01 48.69392 4.05974 35266 ft 402 kts 179°
2026-04-24 08:02 48.66596 4.06019 35263 ft 402 kts 179°
2026-04-24 08:02 48.61330 4.06109 35262 ft 402 kts 179°
2026-04-24 08:03 48.55747 4.06065 35254 ft 402 kts 184°
2026-04-24 08:03 48.50258 4.04440 35244 ft 402 kts 191°
2026-04-24 08:04 48.44799 4.02619 35244 ft 402 kts 191°
2026-04-24 08:04 48.39333 4.00846 35245 ft 402 kts 190°
2026-04-24 08:05 48.33864 3.99096 35241 ft 402 kts 190°
2026-04-24 08:05 48.28435 3.97363 35244 ft 402 kts 190°
2026-04-24 08:06 48.22949 3.95739 35238 ft 401 kts 187°
2026-04-24 08:06 48.17426 3.94564 35240 ft 401 kts 186°
2026-04-24 08:07 48.14661 3.93996 35245 ft 401 kts 186°
2026-04-24 08:07 48.09438 3.92886 35242 ft 402 kts 186°
2026-04-24 08:08 48.03903 3.91685 35232 ft 402 kts 186°
2026-04-24 08:09 47.95592 3.89873 35231 ft 402 kts 186°
2026-04-24 08:09 47.90047 3.88664 35215 ft 403 kts 186°
2026-04-24 08:10 47.84500 3.87457 35225 ft 403 kts 186°
2026-04-24 08:10 47.78949 3.86253 35218 ft 403 kts 186°
2026-04-24 08:11 47.73432 3.85059 35223 ft 403 kts 186°
2026-04-24 08:11 47.67874 3.83858 35212 ft 404 kts 186°
2026-04-24 08:12 47.62312 3.82658 35206 ft 404 kts 186°
2026-04-24 08:12 47.59762 3.82109 35209 ft 404 kts 186°
2026-04-24 08:13 47.54200 3.80913 35204 ft 404 kts 186°
2026-04-24 08:13 47.48633 3.79710 35195 ft 405 kts 185°
2026-04-24 08:14 47.43062 3.78507 35195 ft 405 kts 185°
2026-04-24 08:14 47.37491 3.77307 35195 ft 405 kts 185°
2026-04-24 08:15 47.31916 3.76109 35197 ft 405 kts 185°
2026-04-24 08:15 47.26342 3.74914 35187 ft 405 kts 185°
2026-04-24 08:16 47.20761 3.73720 35182 ft 405 kts 185°
2026-04-24 08:16 47.15183 3.72528 35177 ft 405 kts 185°
2026-04-24 08:17 47.09604 3.71340 35182 ft 405 kts 185°
2026-04-24 08:17 47.07238 3.70837 35179 ft 405 kts 185°
2026-04-24 08:18 47.01657 3.69650 35175 ft 405 kts 185°
2026-04-24 08:18 46.97018 3.68666 35176 ft 405 kts 185°
2026-04-24 08:19 46.90536 3.67301 35191 ft 405 kts 185°
2026-04-24 08:19 46.84951 3.66145 35180 ft 405 kts 185°
2026-04-24 08:20 46.80270 3.65177 35180 ft 405 kts 185°
2026-04-24 08:20 46.74689 3.64024 35180 ft 405 kts 185°
2026-04-24 08:21 46.69175 3.62574 35166 ft 408 kts 195°
2026-04-24 08:21 46.63799 3.59889 35171 ft 409 kts 196°
2026-04-24 08:22 46.58421 3.57205 35179 ft 408 kts 195°
2026-04-24 08:22 46.56640 3.56331 35180 ft 408 kts 195°
2026-04-24 08:23 46.51178 3.53673 35189 ft 408 kts 196°
2026-04-24 08:23 46.45781 3.51068 35181 ft 409 kts 195°
2026-04-24 08:24 46.40372 3.48477 35188 ft 410 kts 195°
2026-04-24 08:24 46.34951 3.45883 35185 ft 410 kts 195°
2026-04-24 08:25 46.29521 3.43287 35173 ft 412 kts 197°
2026-04-24 08:25 46.24076 3.40689 35188 ft 413 kts 197°
2026-04-24 08:26 46.18612 3.38089 35188 ft 414 kts 197°
2026-04-24 08:26 46.13131 3.35480 35187 ft 415 kts 197°
2026-04-24 08:27 46.07628 3.32866 35182 ft 417 kts 198°
2026-04-24 08:27 46.05226 3.31726 35185 ft 418 kts 198°
2026-04-24 08:28 45.99684 3.29098 35193 ft 420 kts 198°
2026-04-24 08:28 45.94112 3.26462 35190 ft 423 kts 198°
2026-04-24 08:29 45.88513 3.23820 35178 ft 425 kts 199°
2026-04-24 08:29 45.82892 3.21171 35190 ft 426 kts 199°
2026-04-24 08:30 45.77141 3.19077 35181 ft 429 kts 186°
2026-04-24 08:30 45.71162 3.18871 35166 ft 431 kts 182°
2026-04-24 08:31 45.65156 3.18814 35185 ft 432 kts 182°
2026-04-24 08:31 45.59128 3.18706 35186 ft 434 kts 182°
2026-04-24 08:31 45.56117 3.18638 34997 ft 432 kts 183°
2026-04-24 08:32 45.53134 3.18565 34707 ft 425 kts 183°
2026-04-24 08:32 45.52175 3.18542 34592 ft 424 kts 183°
2026-04-24 08:32 45.50525 3.18500 34368 ft 422 kts 183°
2026-04-24 08:32 45.47597 3.18426 33987 ft 419 kts 183°
2026-04-24 08:33 45.44691 3.18353 33582 ft 416 kts 183°
2026-04-24 08:33 45.41804 3.18280 33194 ft 413 kts 183°
2026-04-24 08:33 45.38939 3.18208 32826 ft 410 kts 183°
2026-04-24 08:33 45.36093 3.18137 32456 ft 408 kts 183°
2026-04-24 08:34 45.33268 3.18067 32073 ft 405 kts 183°
2026-04-24 08:34 45.30456 3.17997 31717 ft 403 kts 183°
2026-04-24 08:34 45.27667 3.17928 31370 ft 400 kts 183°
2026-04-24 08:34 45.24890 3.17859 31017 ft 398 kts 183°
2026-04-24 08:35 45.22125 3.17790 30671 ft 396 kts 183°
2026-04-24 08:35 45.19374 3.17722 30323 ft 395 kts 183°
2026-04-24 08:35 45.16635 3.17654 29922 ft 393 kts 183°
2026-04-24 08:35 45.13909 3.17587 29521 ft 390 kts 183°
2026-04-24 08:36 45.11203 3.17521 29164 ft 387 kts 183°
2026-04-24 08:36 45.08522 3.17429 28782 ft 384 kts 184°
2026-04-24 08:36 45.05865 3.17283 28444 ft 381 kts 184°
2026-04-24 08:36 45.03229 3.17124 28067 ft 378 kts 185°
2026-04-24 08:37 45.00606 3.16970 27712 ft 376 kts 184°
2026-04-24 08:37 44.99723 3.16920 27592 ft 375 kts 184°
2026-04-24 08:37 44.97657 3.16806 27315 ft 373 kts 184°
2026-04-24 08:37 44.95071 3.16672 26968 ft 371 kts 184°
2026-04-24 08:38 44.92497 3.16605 26615 ft 369 kts 182°
2026-04-24 08:38 44.89936 3.16576 26274 ft 367 kts 182°
2026-04-24 08:38 44.87387 3.16555 25939 ft 365 kts 182°
2026-04-24 08:38 44.84850 3.16531 25598 ft 364 kts 182°
2026-04-24 08:39 44.82322 3.16503 25257 ft 362 kts 183°
2026-04-24 08:39 44.79806 3.16471 24919 ft 361 kts 183°
2026-04-24 08:39 44.77300 3.16437 24582 ft 360 kts 183°
2026-04-24 08:39 44.74799 3.16401 24248 ft 359 kts 183°
2026-04-24 08:40 44.72308 3.16365 23907 ft 358 kts 183°
2026-04-24 08:40 44.69821 3.16329 23523 ft 357 kts 183°
2026-04-24 08:40 44.67341 3.16294 23147 ft 356 kts 183°
2026-04-24 08:40 44.64873 3.16258 22783 ft 354 kts 183°
2026-04-24 08:41 44.62421 3.16224 22443 ft 351 kts 183°
2026-04-24 08:41 44.59999 3.15971 22105 ft 346 kts 194°
2026-04-24 08:41 44.57675 3.15210 21801 ft 341 kts 197°
2026-04-24 08:41 44.55381 3.14375 21462 ft 340 kts 197°
2026-04-24 08:42 44.53100 3.13534 21131 ft 338 kts 197°
2026-04-24 08:42 44.52364 3.13263 21024 ft 337 kts 197°
2026-04-24 08:42 44.51435 3.12923 20888 ft 337 kts 197°
2026-04-24 08:42 44.49171 3.12101 20569 ft 335 kts 197°
2026-04-24 08:43 44.46919 3.11290 20248 ft 334 kts 197°
2026-04-24 08:43 44.44672 3.10486 19910 ft 333 kts 197°
2026-04-24 08:43 44.42431 3.09689 19596 ft 332 kts 197°
2026-04-24 08:43 44.40196 3.08897 19272 ft 331 kts 196°
2026-04-24 08:44 44.37967 3.08108 18941 ft 330 kts 196°
2026-04-24 08:44 44.35771 3.07333 18621 ft 329 kts 196°
2026-04-24 08:44 44.33552 3.06550 18283 ft 328 kts 196°
2026-04-24 08:44 44.31342 3.05770 17918 ft 327 kts 196°
2026-04-24 08:45 44.29139 3.04995 17578 ft 326 kts 196°
2026-04-24 08:45 44.26947 3.04223 17242 ft 324 kts 196°
2026-04-24 08:45 44.24770 3.03457 16927 ft 322 kts 196°
2026-04-24 08:45 44.22606 3.02697 16624 ft 320 kts 197°
2026-04-24 08:46 44.20451 3.01940 16288 ft 319 kts 197°
2026-04-24 08:46 44.18309 3.01188 15966 ft 316 kts 197°
2026-04-24 08:46 44.16184 3.00442 15662 ft 314 kts 196°
2026-04-24 08:46 44.14073 2.99702 15348 ft 312 kts 197°
2026-04-24 08:47 44.11968 2.98967 15044 ft 311 kts 196°
2026-04-24 08:47 44.10108 2.98318 14650 ft 313 kts 197°
2026-04-24 08:47 44.07989 2.97575 14275 ft 314 kts 195°
2026-04-24 08:48 44.05872 2.96832 13944 ft 313 kts 197°
2026-04-24 08:48 44.03763 2.96091 13590 ft 312 kts 195°
2026-04-24 08:48 44.01670 2.95359 13237 ft 309 kts 196°
2026-04-24 08:48 43.99591 2.94631 12904 ft 307 kts 196°
2026-04-24 08:49 43.97527 2.93910 12604 ft 305 kts 196°
2026-04-24 08:49 43.95478 2.93193 12269 ft 302 kts 195°
2026-04-24 08:49 43.93447 2.92485 11973 ft 300 kts 195°
2026-04-24 08:49 43.91427 2.91780 11661 ft 299 kts 195°
2026-04-24 08:50 43.89414 2.91079 11345 ft 298 kts 195°
2026-04-24 08:50 43.87414 2.90383 11052 ft 295 kts 195°
2026-04-24 08:50 43.85430 2.89691 10760 ft 293 kts 195°
2026-04-24 08:50 43.83460 2.89006 10473 ft 291 kts 195°
2026-04-24 08:51 43.81501 2.88325 10259 ft 287 kts 194°
2026-04-24 08:51 43.79585 2.87660 10040 ft 283 kts 194°
2026-04-24 08:51 43.77639 2.87401 9685 ft 283 kts 172°
2026-04-24 08:51 43.75808 2.88303 9511 ft 279 kts 153°
2026-04-24 08:52 43.74161 2.89729 9236 ft 279 kts 148°
2026-04-24 08:52 43.72564 2.91251 8963 ft 279 kts 146°
2026-04-24 08:52 43.70979 2.92779 8676 ft 277 kts 146°
2026-04-24 08:52 43.69403 2.94289 8394 ft 275 kts 146°
2026-04-24 08:53 43.67837 2.95777 8103 ft 272 kts 147°
2026-04-24 08:53 43.66282 2.97243 7825 ft 269 kts 148°
2026-04-24 08:53 43.64755 2.98674 7594 ft 262 kts 147°
2026-04-24 08:53 43.63250 3.00082 7317 ft 261 kts 147°
2026-04-24 08:54 43.61746 3.01484 7051 ft 261 kts 148°
2026-04-24 08:54 43.60244 3.02881 6774 ft 260 kts 147°
2026-04-24 08:54 43.58747 3.04269 6506 ft 258 kts 147°
2026-04-24 08:54 43.57257 3.05658 6219 ft 258 kts 147°
2026-04-24 08:55 43.55770 3.07039 5924 ft 257 kts 147°
2026-04-24 08:55 43.54296 3.08406 5668 ft 254 kts 147°
2026-04-24 08:55 43.52834 3.09760 5391 ft 253 kts 147°
2026-04-24 08:55 43.51362 3.11121 4999 ft 256 kts 148°
2026-04-24 08:56 43.49887 3.12486 4702 ft 255 kts 147°
2026-04-24 08:56 43.48373 3.13738 4380 ft 254 kts 159°
2026-04-24 08:56 43.46640 3.14060 4195 ft 250 kts 182°
2026-04-24 08:56 43.44942 3.13795 4112 ft 242 kts 187°
2026-04-24 08:57 43.43318 3.13533 4038 ft 228 kts 184°
2026-04-24 08:57 43.41781 3.13325 3933 ft 215 kts 184°
2026-04-24 08:57 43.40353 3.13137 3820 ft 199 kts 184°
2026-04-24 08:57 43.38982 3.13011 3407 ft 198 kts 172°
2026-04-24 08:58 43.37771 3.13745 3162 ft 187 kts 141°
2026-04-24 08:58 43.36763 3.14899 2911 ft 188 kts 142°
2026-04-24 08:58 43.35763 3.15994 2724 ft 178 kts 142°
2026-04-24 08:58 43.34816 3.17021 2537 ft 170 kts 142°
2026-04-24 08:59 43.33890 3.18033 2374 ft 172 kts 138°
2026-04-24 08:59 43.33334 3.19461 2192 ft 173 kts 99°
2026-04-24 08:59 43.33203 3.21044 1962 ft 165 kts 100°
2026-04-24 08:59 43.33079 3.22587 1761 ft 157 kts 98°
2026-04-24 09:00 43.32983 3.24052 1554 ft 156 kts 97°
2026-04-24 09:00 43.32896 3.25509 1360 ft 155 kts 97°
2026-04-24 09:00 43.32811 3.26992 1147 ft 156 kts 96°
2026-04-24 09:00 43.32728 3.28470 943 ft 153 kts 96°
2026-04-24 09:01 43.32649 3.29875 733 ft 144 kts 95°
2026-04-24 09:01 43.32570 3.31265 551 ft 148 kts 96°
2026-04-24 09:01 43.32494 3.32676 330 ft 149 kts 95°
2026-04-24 09:01 43.32413 3.34054 110 ft 140 kts 94°
2026-04-24 09:02 43.32347 3.35295 57 ft 108 kts 94°
2026-04-24 09:02 43.32308 3.36019 49 ft 27 kts 94°
2026-04-24 09:02 43.32289 3.36163 48 ft 4 kts 68°
2026-04-24 09:02 43.32307 3.36144 47 ft 7 kts 270°
2026-04-24 09:03 43.32306 3.36063 49 ft 9 kts 269°
2026-04-24 09:03 43.32309 3.35975 49 ft 9 kts 274°
2026-04-24 09:03 43.32314 3.35889 53 ft 9 kts 274°
2026-04-24 09:03 43.32319 3.35797 53 ft 14 kts 274°
2026-04-24 09:04 43.32330 3.35607 52 ft 24 kts 274°
2026-04-24 09:04 43.32341 3.35392 54 ft 11 kts 269°
2026-04-24 09:04 43.32247 3.35327 58 ft 13 kts 185°
2026-04-24 09:04 43.32174 3.35340 52 ft 11 kts 142°
2026-04-24 09:05 43.32133 3.35389 52 ft 0 kts 138°